Location: Memmingen
(47.9830°N, 10.1733°E)
Time: 22:35:48
(UTC+01:00)

Amateur Radio Satellites - All Passes

Search period start: 18 November 2017 22:05
Search period end: 19 November 2017 22:05
Location: Memmingen, 47.9830°N, 10.1733°E

Satellite Date Start Highest point End Downlink Frequencies (MHz)
Time Altitude Azimuth
ISS 18 Nov 22:09:10 22:11:47 22° 140° (SE) 22:14:24 437.550
SO-50 18 Nov 22:29:38 22:33:39 34° 118° (ESE) 22:37:43 436.795
UNISAT 6 18 Nov 22:35:21 22:39:40 69° 286° (WNW) 22:43:54 437.425
LO-87 18 Nov 22:35:30 22:39:07 81° 76° (ENE) 22:42:45 145.935 - 145.965
TIGRISAT 18 Nov 22:40:36 22:44:53 67° 287° (WNW) 22:49:05 435.000
O/OREOS (USA 219) 18 Nov 22:51:44 22:55:50 31° 54° (NE) 22:59:53 437.305
PRISM 18 Nov 22:55:57 23:00:08 72° 103° (ESE) 23:04:17 437.425
EO-79 18 Nov 23:03:23 23:04:22 11° 87° (E) 23:05:21 145.935-145.965
NANOSAT C BR1 18 Nov 23:08:41 23:09:42 11° 87° (E) 23:10:45 145.865
nSIGHT-1 18 Nov 23:10:31 23:13:44 74° 153° (SSE) 23:16:56 .
ESTCUBE 1 18 Nov 23:11:11 23:15:37 62° 259° (W) 23:20:05 437.505/2401.250
AIST 2D 18 Nov 23:15:06 23:18:25 37° 98° (E) 23:21:43 435.315
NO-84 18 Nov 23:16:19 23:20:27 49° 221° (SW) 23:24:32 435.350 FM
POLYITAN 1 18 Nov 23:16:33 23:18:59 15° 90° (E) 23:21:26 437.675
SPROUT 18 Nov 23:29:58 23:34:09 56° 72° (ENE) 23:38:22 437.525
QB50P2 18 Nov 23:38:43 23:42:21 27° 95° (E) 23:45:57 145.880/145.840
ISS 18 Nov 23:44:43 23:47:59 79° 339° (NNW) 23:51:16 437.550
VELOX 1 18 Nov 23:45:06 23:49:25 54° 71° (ENE) 23:53:47 145.980
50 SAT 18 Nov 23:45:34 23:46:39 11° 61° (ENE) 23:47:45 437.505
FO-29 18 Nov 23:51:28 23:55:27 15° 316° (NW) 23:59:27 435.910
RS-15 18 Nov 23:52:22 00:03:22 36° 355° (N) 00:14:02 29.354- 29.394
UKube-1 18 Nov 23:55:23 23:57:29 13° 57° (ENE) 23:59:34 .
SO-50 19 Nov 00:09:51 00:14:03 39° 318° (NW) 00:18:20 436.795
O/OREOS (USA 219) 19 Nov 00:31:07 00:35:17 35° 253° (WSW) 00:39:23 437.305
PRISM 19 Nov 00:32:37 00:34:52 14° 301° (WNW) 00:37:07 437.425
DUCHIFAT 1 19 Nov 00:32:58 00:37:09 71° 103° (ESE) 00:41:17 145.980
Oscar 19 19 Nov 00:33:14 00:35:34 13° 87° (E) 00:37:53 437.125/150
PCSat 19 Nov 00:33:52 00:38:31 30° 111° (ESE) 00:43:10 145.827
EO-79 19 Nov 00:36:29 00:40:43 83° 282° (WNW) 00:44:54 145.935-145.965
DX 1 19 Nov 00:40:14 00:44:27 50° 70° (ENE) 00:48:43 434.975-435.025
NANOSAT C BR1 19 Nov 00:41:47 00:46:00 82° 285° (WNW) 00:50:10 145.865
nSIGHT-1 19 Nov 00:47:02 00:50:08 43° 353° (N) 00:53:13 .
AIST 2D 19 Nov 00:48:57 00:51:20 17° 295° (WNW) 00:53:42 435.315
POLYITAN 1 19 Nov 00:51:01 00:55:10 59° 288° (WNW) 00:59:16 437.675
SPROUT 19 Nov 01:07:38 01:10:24 17° 270° (W) 01:13:09 437.525
QB50P2 19 Nov 01:14:24 01:18:08 32° 293° (WNW) 01:21:52 145.880/145.840
50 SAT 19 Nov 01:15:09 01:18:20 54° 259° (W) 01:21:33 437.505
BEESAT 19 Nov 01:17:17 01:20:07 16° 57° (ENE) 01:22:56 436.000
ISS 19 Nov 01:21:35 01:24:44 41° 359° (N) 01:27:51 437.550
VELOX 1 19 Nov 01:23:09 01:26:11 18° 269° (W) 01:29:16 145.980
ITUPSAT 1 19 Nov 01:24:31 01:27:41 18° 58° (ENE) 01:30:51 437.325
UKube-1 19 Nov 01:28:32 01:32:52 83° 256° (WSW) 01:37:14 .
BUGSAT 1 19 Nov 01:37:24 01:41:29 89° 106° (ESE) 01:45:30 437.445
SO-50 19 Nov 01:53:35 01:55:46 13° 341° (NNW) 01:57:58 436.795
MOZHAYETS 4 19 Nov 02:03:26 02:07:45 42° 69° (ENE) 02:12:04
RS-15 19 Nov 02:08:01 02:19:35 46° 28° (NNE) 02:30:34 29.354- 29.394
CUBESAT XI-V 19 Nov 02:09:23 02:11:51 14° 58° (ENE) 02:14:19 437.345
DUCHIFAT 1 19 Nov 02:10:03 02:12:16 14° 301° (WNW) 02:14:29 145.980
Oscar 19 19 Nov 02:10:26 02:15:38 88° 105° (ESE) 02:20:48 437.125/150
Gurwin Techsat 1B 19 Nov 02:12:16 02:17:37 68° 103° (ESE) 02:22:54 435.225
EO-79 19 Nov 02:14:41 02:15:44 11° 304° (WNW) 02:16:47 145.935-145.965
PCSat 19 Nov 02:16:23 02:21:40 52° 311° (NW) 02:26:59 145.827
DX 1 19 Nov 02:17:47 02:20:55 19° 268° (W) 02:24:04 434.975-435.025
NANOSAT C BR1 19 Nov 02:20:03 02:20:58 11° 304° (WNW) 02:21:54 145.865
nSIGHT-1 19 Nov 02:23:33 02:26:42 52° 13° (NNE) 02:29:50 .
AO-7 19 Nov 02:35:10 02:41:25 23° 90° (E) 02:47:38 .
BEESAT 19 Nov 02:52:28 02:57:15 81° 255° (WSW) 03:02:04 436.000
ISS 19 Nov 02:58:15 03:01:31 67° 18° (NNE) 03:04:45 437.550
ITUPSAT 1 19 Nov 03:00:13 03:05:00 71° 257° (WSW) 03:09:47 437.325
M-CUBED/EXP-1 PRIME 19 Nov 03:11:06 03:15:32 64° 107° (ESE) 03:20:07 437.505
BUGSAT 1 19 Nov 03:14:57 03:16:10 11° 303° (WNW) 03:17:23 437.445
BEESAT 3 19 Nov 03:24:50 03:28:25 32° 118° (ESE) 03:32:02 437.485
SO-50 19 Nov 03:37:54 03:38:17 10° 6° (N) 03:38:39 436.795
MOZHAYETS 4 19 Nov 03:41:23 03:45:04 24° 267° (W) 03:48:46
CUBESAT XI-V 19 Nov 03:43:59 03:48:35 83° 256° (WSW) 03:53:14 437.345
Oscar 19 19 Nov 03:51:10 03:54:16 16° 304° (NW) 03:57:21 437.125/150
Gurwin Techsat 1B 19 Nov 03:53:08 03:57:04 21° 302° (WNW) 04:01:00 435.225
ITAMSAT 1 19 Nov 03:56:37 04:01:45 54° 100° (E) 04:06:51 435.822/435.867
nSIGHT-1 19 Nov 03:59:52 04:02:56 43° 212° (SSW) 04:05:58 .
PCSat 19 Nov 04:03:02 04:06:20 16° 334° (NNW) 04:09:40 145.827
DOVE 4 19 Nov 04:06:50 04:09:56 16° 86° (E) 04:12:58 437.250
KKS-1 19 Nov 04:15:47 04:20:10 57° 71° (ENE) 04:24:36 437.445
RS-15 19 Nov 04:21:16 04:33:14 80° 237° (WSW) 04:44:30 29.354- 29.394
YUBILEINY 19 Nov 04:25:34 04:31:28 21° 75° (ENE) 04:37:22 435.215
AO-7 19 Nov 04:26:50 04:35:14 89° 283° (WNW) 04:43:37 .
BEESAT 2 19 Nov 04:29:06 04:32:56 44° 121° (ESE) 04:36:49 435.950
BEESAT 19 Nov 04:34:49 04:35:48 11° 274° (W) 04:36:46 436.000
ISS 19 Nov 04:34:57 04:37:49 28° 217° (SW) 04:40:40 437.550
M-CUBED/EXP-1 PRIME 19 Nov 04:46:20 04:49:31 20° 304° (NW) 04:52:47 437.505
STARS 19 Nov 04:48:08 04:52:25 51° 70° (ENE) 04:56:45 437.465
BEESAT 3 19 Nov 05:02:16 05:05:56 34° 318° (NW) 05:09:38 437.485
STRAND 1 19 Nov 05:10:59 05:13:48 15° 55° (NE) 05:16:39 437.568
CUTE-I 19 Nov 05:11:10 05:12:45 11° 85° (E) 05:14:19 437.470
SO-50 19 Nov 05:17:03 05:20:31 20° 31° (NNE) 05:24:00 436.795
LilacSat-2 19 Nov 05:18:45 05:20:32 13° 89° (E) 05:22:19 437.200
XW-2C 19 Nov 05:20:25 05:22:02 12° 89° (E) 05:23:39 145.795 - 145.815
CUBESAT XI-V 19 Nov 05:26:14 05:26:42 10° 275° (W) 05:27:10 437.345
AO-85 19 Nov 05:26:47 05:30:38 66° 125° (SE) 05:34:43 145.980
XW-2F 19 Nov 05:33:07 05:35:29 16° 91° (E) 05:37:52 145.980 - 146.000
ITAMSAT 1 19 Nov 05:36:42 05:40:54 25° 300° (WNW) 05:45:04 435.822/435.867
DOVE 4 19 Nov 05:42:58 05:48:16 81° 285° (WNW) 05:53:21 437.250
KKS-1 19 Nov 05:54:03 05:57:04 18° 269° (W) 06:00:08 437.445
KAITUO 1B 19 Nov 06:05:10 06:08:26 27° 96° (E) 06:11:42 145.475/437.950
BEESAT 2 19 Nov 06:07:18 06:10:49 28° 320° (NW) 06:14:22 435.950
XW-2D 19 Nov 06:12:42 06:16:23 47° 99° (E) 06:20:04 145.860 - 145.880
YUBILEINY 19 Nov 06:18:10 06:26:55 86° 97° (E) 06:35:47 435.215
AO-7 19 Nov 06:20:29 06:27:02 27° 312° (NW) 06:33:37 .
STARS 19 Nov 06:25:51 06:29:02 19° 268° (W) 06:32:15 437.465
XW-2B 19 Nov 06:27:21 06:31:09 67° 102° (ESE) 06:34:57 145.730 - 145.750
SEEDS 19 Nov 06:33:40 06:35:45 13° 88° (E) 06:37:50 437.485
RS-15 19 Nov 06:35:21 06:43:38 23° 261° (W) 06:51:41 29.354- 29.394
FO-29 19 Nov 06:35:53 06:41:29 28° 55° (NE) 06:47:34 435.910
BEESAT 3 19 Nov 06:44:00 06:44:38 10° 339° (NNW) 06:45:17 437.485
STRAND 1 19 Nov 06:47:04 06:52:15 85° 71° (ENE) 06:57:26 437.568
CUTE-I 19 Nov 06:48:18 06:53:43 75° 104° (ESE) 06:59:04 437.470
LilacSat-2 19 Nov 06:51:24 06:55:10 59° 287° (WNW) 06:58:56 437.200
XW-2C 19 Nov 06:52:51 06:56:36 60° 286° (WNW) 07:00:20 145.795 - 145.815
NUDT-PHONESAT 19 Nov 06:54:19 06:58:02 83° 284° (WNW) 07:01:44 437.300
SO-50 19 Nov 06:56:59 07:01:38 85° 53° (NE) 07:06:20 436.795
XW-2F 19 Nov 07:06:13 07:09:51 45° 288° (WNW) 07:13:28 145.980 - 146.000
AO-85 19 Nov 07:08:21 07:11:28 21° 326° (NNW) 07:14:43 145.980
HO-68 19 Nov 07:16:50 07:23:54 55° 101° (E) 07:30:55 435.675
DOVE 4 19 Nov 07:22:16 07:25:03 15° 305° (NW) 07:27:48 437.250
ZACube-1 19 Nov 07:24:41 07:26:35 13° 88° (E) 07:28:29 437.345
XW-2A 19 Nov 07:25:37 07:28:06 19° 94° (E) 07:30:35 145.665 - 145.685
UWE-3 19 Nov 07:27:06 07:30:32 25° 94° (E) 07:33:57 435.000/436.395/437.385
CUTE 1.7 + AOD 2 19 Nov 07:31:51 07:36:09 82° 101° (E) 07:40:26 437.475
PCSat 19 Nov 07:34:40 07:38:05 17° 27° (NNE) 07:41:29 145.827
KAITUO 1B 19 Nov 07:39:12 07:42:21 26° 293° (WNW) 07:45:29 145.475/437.950
XW-2D 19 Nov 07:47:46 07:50:13 17° 297° (WNW) 07:52:40 145.860 - 145.880
CUBEBUG 2 19 Nov 08:00:32 08:04:47 86° 282° (WNW) 08:08:55 437.445
UNISAT 6 19 Nov 08:01:50 08:05:10 20° 62° (ENE) 08:08:27 437.425
XW-2B 19 Nov 08:03:08 08:04:50 13° 299° (WNW) 08:06:31 145.730 - 145.750
TIGRISAT 19 Nov 08:06:52 08:10:15 21° 63° (ENE) 08:13:35 435.000
SEEDS 19 Nov 08:07:40 08:11:54 68° 286° (WNW) 08:16:06 437.485
AO-73 19 Nov 08:15:52 08:19:45 37° 97° (E) 08:23:37 145.935
PRISM 19 Nov 08:16:50 08:17:34 10° 56° (NE) 08:18:18 437.425
YUBILEINY 19 Nov 08:17:58 08:24:56 26° 301° (WNW) 08:32:01 435.215
FO-29 19 Nov 08:19:12 08:25:47 74° 258° (WSW) 08:33:15 435.910
AAUSAT CUBESAT 2 19 Nov 08:22:32 08:26:45 80° 105° (ESE) 08:30:55 437.432
STRAND 1 19 Nov 08:29:20 08:32:06 14° 273° (W) 08:34:52 437.568
CUTE-I 19 Nov 08:29:24 08:33:11 20° 303° (WNW) 08:36:57 437.470
Oscar 11 19 Nov 08:35:13 08:39:20 42° 98° (E) 08:43:26 .
SO-50 19 Nov 08:38:52 08:41:29 15° 250° (WSW) 08:44:06 436.795
XW-2A 19 Nov 08:57:55 09:00:51 28° 291° (WNW) 09:03:47 145.665 - 145.685
ZACube-1 19 Nov 08:59:12 09:03:20 67° 286° (WNW) 09:07:27 437.345
UWE-3 19 Nov 09:03:18 09:07:04 34° 292° (WNW) 09:10:48 435.000/436.395/437.385
HO-68 19 Nov 09:04:57 09:11:24 37° 301° (WNW) 09:17:47 435.675
CUTE 1.7 + AOD 2 19 Nov 09:09:23 09:11:22 13° 301° (WNW) 09:13:21 437.475
PCSat 19 Nov 09:17:22 09:22:43 54° 50° (NE) 09:28:01 145.827
DELFI C3 19 Nov 09:17:58 09:21:22 26° 94° (E) 09:24:45 145.870
Max Valier Satellite 19 Nov 09:22:18 09:25:00 19° 93° (E) 09:27:42 145.860
EO-88 19 Nov 09:27:03 09:29:20 16° 91° (E) 09:31:36 145.990 - 145.960
UNISAT 6 19 Nov 09:37:01 09:41:31 54° 260° (W) 09:45:58 437.425
CUBEBUG 2 19 Nov 09:39:33 09:40:41 11° 303° (WNW) 09:41:48 437.445
TIGRISAT 19 Nov 09:42:08 09:46:36 52° 260° (W) 09:51:02 435.000
PRISM 19 Nov 09:47:58 09:52:05 80° 74° (ENE) 09:56:16 437.425
AO-73 19 Nov 09:52:31 09:55:48 23° 295° (WNW) 09:59:04 145.935
AIST 2D 19 Nov 09:52:42 09:55:31 23° 67° (ENE) 09:58:20 435.315
DUCHIFAT 1 19 Nov 09:55:48 09:56:46 11° 56° (ENE) 09:57:45 145.980
EO-79 19 Nov 09:58:24 10:00:42 14° 59° (ENE) 10:03:01 145.935-145.965
AAUSAT CUBESAT 2 19 Nov 09:59:40 10:01:35 13° 301° (WNW) 10:03:31 437.432
BEESAT 3 19 Nov 10:01:15 10:03:26 14° 28° (NNE) 10:05:36 437.485
NANOSAT C BR1 19 Nov 10:03:24 10:05:41 14° 59° (ENE) 10:07:59 145.865
FO-29 19 Nov 10:08:42 10:12:18 15° 280° (W) 10:16:07 435.910
Oscar 11 19 Nov 10:11:50 10:15:14 23° 296° (WNW) 10:18:38 .
POLYITAN 1 19 Nov 10:12:09 10:15:10 19° 62° (ENE) 10:18:11 437.675
QB50P2 19 Nov 10:34:16 10:38:05 33° 67° (ENE) 10:41:54 145.880/145.840
AO-85 19 Nov 10:34:51 10:36:01 11° 17° (NNE) 10:37:13 145.980
DELFI C3 19 Nov 10:52:34 10:56:07 30° 292° (WNW) 10:59:38 145.870
Max Valier Satellite 19 Nov 10:55:35 10:58:56 34° 290° (WNW) 11:02:16 145.860
BUGSAT 1 19 Nov 10:57:26 10:59:13 12° 58° (ENE) 11:00:59 437.445
EO-88 19 Nov 10:59:43 11:03:11 42° 288° (WNW) 11:06:39 145.990 - 145.960
ESTCUBE 1 19 Nov 11:00:28 11:03:59 22° 92° (E) 11:07:29 437.505/2401.250
PCSat 19 Nov 11:01:15 11:05:49 28° 250° (WSW) 11:10:23 145.827
BEESAT 2 19 Nov 11:06:15 11:08:59 17° 31° (NNE) 11:11:42 435.950
AIST 2D 19 Nov 11:25:42 11:28:37 25° 265° (W) 11:31:33 435.315
PRISM 19 Nov 11:26:47 11:27:55 11° 272° (W) 11:29:03 437.425
DUCHIFAT 1 19 Nov 11:27:29 11:31:42 81° 76° (ENE) 11:35:56 145.980
EO-79 19 Nov 11:31:41 11:35:56 72° 257° (WSW) 11:40:12 145.935-145.965
LO-87 19 Nov 11:32:00 11:35:32 60° 101° (E) 11:39:02 145.935 - 145.965
NANOSAT C BR1 19 Nov 11:36:38 11:40:52 72° 258° (WSW) 11:45:06 145.865
BEESAT 3 19 Nov 11:37:49 11:41:45 62° 48° (NE) 11:45:38 437.485
POLYITAN 1 19 Nov 11:46:28 11:50:37 51° 260° (W) 11:54:45 437.675
AO-7 19 Nov 11:50:41 11:54:37 14° 34° (NE) 11:58:34 .
Oscar 19 19 Nov 11:52:37 11:56:56 28° 63° (ENE) 12:01:16 437.125/150
Gurwin Techsat 1B 19 Nov 11:58:29 12:02:43 25° 61° (ENE) 12:06:59 435.225
FALCONSAT 3 19 Nov 12:02:57 12:03:34 10° 170° (S) 12:04:10 435.103
QB50P2 19 Nov 12:10:15 12:13:54 27° 265° (W) 12:17:32 145.880/145.840
AO-85 19 Nov 12:13:49 12:17:49 30° 39° (NE) 12:22:04 145.980
M-CUBED/EXP-1 PRIME 19 Nov 12:27:44 12:29:55 15° 53° (NE) 12:32:13 437.505
BUGSAT 1 19 Nov 12:29:44 12:33:57 84° 256° (WSW) 12:38:10 437.445
ESTCUBE 1 19 Nov 12:36:40 12:41:00 46° 290° (WNW) 12:45:20 437.505/2401.250
BEESAT 2 19 Nov 12:43:15 12:47:20 84° 52° (NE) 12:51:20 435.950
SPROUT 19 Nov 12:47:33 12:51:49 66° 102° (ESE) 12:56:01 437.525
DUCHIFAT 1 19 Nov 13:06:40 13:07:56 11° 273° (W) 13:09:11 145.980
LO-87 19 Nov 13:06:59 13:08:28 12° 299° (WNW) 13:09:57 145.935 - 145.965
VELOX 1 19 Nov 13:07:35 13:12:03 67° 102° (ESE) 13:16:28 145.980
O/OREOS (USA 219) 19 Nov 13:08:51 13:11:51 17° 100° (E) 13:14:52 437.305
UKube-1 19 Nov 13:13:40 13:15:34 13° 89° (E) 13:17:26 .
BEESAT 3 19 Nov 13:16:24 13:18:50 16° 248° (WSW) 13:21:16 437.485
Oscar 19 19 Nov 13:31:10 13:36:04 45° 261° (W) 13:41:00 437.125/150
Gurwin Techsat 1B 19 Nov 13:37:07 13:42:19 56° 259° (W) 13:47:35 435.225
AO-7 19 Nov 13:37:38 13:45:20 45° 57° (ENE) 13:53:05 .
FALCONSAT 3 19 Nov 13:40:29 13:41:44 11° 186° (S) 13:43:00 435.103
ITAMSAT 1 19 Nov 13:40:35 13:44:20 20° 58° (ENE) 13:48:05 435.822/435.867
AO-85 19 Nov 13:53:56 13:58:28 54° 237° (WSW) 14:03:19 145.980
M-CUBED/EXP-1 PRIME 19 Nov 14:00:23 14:03:51 57° 253° (WSW) 14:07:39 437.505
DX 1 19 Nov 14:00:39 14:05:00 57° 101° (ESE) 14:09:18 434.975-435.025
50 SAT 19 Nov 14:00:56 14:04:11 71° 102° (ESE) 14:07:24 437.505
BEESAT 2 19 Nov 14:22:51 14:24:25 12° 251° (WSW) 14:26:00 435.950
SPROUT 19 Nov 14:24:40 14:27:13 16° 300° (WNW) 14:29:43 437.525
YUBILEINY 19 Nov 14:29:13 14:33:16 14° 46° (NE) 14:37:17 435.215
VELOX 1 19 Nov 14:45:10 14:47:59 17° 301° (WNW) 14:50:49 145.980
O/OREOS (USA 219) 19 Nov 14:46:13 14:50:46 62° 299° (WNW) 14:55:22 437.305
UKube-1 19 Nov 14:47:46 14:52:07 76° 286° (WNW) 14:56:25 .
BEESAT 19 Nov 14:49:45 14:53:11 19° 91° (E) 14:56:36 436.000
ITUPSAT 1 19 Nov 14:57:38 15:01:23 22° 93° (E) 15:05:05 437.325
DOVE 4 19 Nov 15:14:50 15:18:48 23° 61° (ENE) 15:22:52 437.250
ITAMSAT 1 19 Nov 15:18:03 15:23:16 71° 257° (WSW) 15:28:32 435.822/435.867
AO-7 19 Nov 15:30:02 15:38:02 51° 259° (WSW) 15:46:06 .
MOZHAYETS 4 19 Nov 15:31:26 15:35:59 61° 101° (ESE) 15:40:29
CUBESAT XI-V 19 Nov 15:37:34 15:40:56 19° 91° (E) 15:44:19 437.345
DX 1 19 Nov 15:37:44 15:40:47 19° 300° (WNW) 15:43:49 434.975-435.025
LilacSat-2 19 Nov 16:04:50 16:06:08 12° 60° (ENE) 16:07:26 437.200
HO-68 19 Nov 16:05:35 16:09:26 15° 44° (NE) 16:13:17 435.675
XW-2C 19 Nov 16:05:59 16:07:01 11° 59° (ENE) 16:08:02 145.795 - 145.815
NO-84 19 Nov 16:10:14 16:13:43 37° 136° (SE) 16:17:29 435.350 FM
XW-2F 19 Nov 16:17:52 16:19:45 14° 61° (ENE) 16:21:39 145.980 - 146.000
YUBILEINY 19 Nov 16:24:02 16:32:41 53° 72° (ENE) 16:41:14 435.215
UKube-1 19 Nov 16:26:25 16:27:21 11° 305° (NW) 16:28:17 .
BEESAT 19 Nov 16:26:38 16:31:18 56° 290° (WNW) 16:35:57 436.000
O/OREOS (USA 219) 19 Nov 16:29:24 16:31:11 12° 320° (NW) 16:32:58 437.305
ITUPSAT 1 19 Nov 16:34:51 16:39:27 49° 291° (WNW) 16:44:01 437.325
CUTE-I 19 Nov 16:34:52 16:39:22 28° 62° (ENE) 16:43:53 437.470
RS-15 19 Nov 16:48:07 16:49:46 10° 89° (E) 16:51:25 29.354- 29.394
KAITUO 1B 19 Nov 16:48:31 16:51:23 22° 66° (ENE) 16:54:16 145.475/437.950
DOVE 4 19 Nov 16:51:05 16:56:01 58° 260° (W) 17:01:14 437.250
CUTE 1.7 + AOD 2 19 Nov 16:55:11 16:56:29 11° 57° (ENE) 16:57:48 437.475
XW-2D 19 Nov 16:57:00 17:00:26 37° 70° (ENE) 17:03:55 145.860 - 145.880
ITAMSAT 1 19 Nov 17:03:19 17:03:41 10° 275° (W) 17:04:02 435.822/435.867
MOZHAYETS 4 19 Nov 17:09:34 17:12:41 18° 300° (WNW) 17:15:48
XW-2B 19 Nov 17:11:32 17:15:09 51° 73° (ENE) 17:18:49 145.730 - 145.750
CUBESAT XI-V 19 Nov 17:14:03 17:18:38 55° 289° (WNW) 17:23:12 437.345
CUBEBUG 2 19 Nov 17:26:57 17:29:42 16° 61° (ENE) 17:32:26 437.445
SEEDS 19 Nov 17:28:43 17:31:08 15° 61° (ENE) 17:33:35 437.485
LilacSat-2 19 Nov 17:36:06 17:39:50 74° 258° (WSW) 17:43:38 437.200
NUDT-PHONESAT 19 Nov 17:36:07 17:39:44 71° 75° (ENE) 17:43:23 437.300
XW-2C 19 Nov 17:36:53 17:40:36 78° 256° (WSW) 17:44:23 145.795 - 145.815
KKS-1 19 Nov 17:39:24 17:43:53 69° 103° (ESE) 17:48:18 437.445
AAUSAT CUBESAT 2 19 Nov 17:44:23 17:44:49 10° 57° (ENE) 17:45:17 437.432
NO-84 19 Nov 17:47:09 17:51:00 52° 336° (NNW) 17:55:06 435.350 FM
HO-68 19 Nov 17:48:44 17:55:44 58° 66° (ENE) 18:02:47 435.675
XW-2F 19 Nov 17:49:45 17:53:25 58° 260° (W) 17:57:07 145.980 - 146.000
XW-2A 19 Nov 18:01:00 18:02:26 12° 63° (ENE) 18:03:55 145.665 - 145.685
STARS 19 Nov 18:09:53 18:14:16 59° 102° (ESE) 18:18:34 437.465
CUTE-I 19 Nov 18:13:58 18:19:10 50° 261° (W) 18:24:24 437.470
YUBILEINY 19 Nov 18:21:13 18:29:17 42° 274° (W) 18:37:20 435.215
KAITUO 1B 19 Nov 18:21:54 18:25:12 31° 264° (W) 18:28:33 145.475/437.950
ZACube-1 19 Nov 18:23:25 18:26:16 17° 62° (ENE) 18:29:05 437.345
UWE-3 19 Nov 18:26:55 18:30:53 32° 68° (ENE) 18:34:46 435.000/436.395/437.385
CUTE 1.7 + AOD 2 19 Nov 18:27:25 18:31:37 87° 76° (ENE) 18:35:52 437.475
XW-2D 19 Nov 18:32:04 18:34:45 19° 268° (W) 18:37:27 145.860 - 145.880
RS-15 19 Nov 18:47:24 18:58:58 50° 112° (ESE) 19:10:25 29.354- 29.394
XW-2B 19 Nov 18:47:41 18:49:38 14° 270° (W) 18:51:37 145.730 - 145.750
STRAND 1 19 Nov 18:54:41 18:58:39 22° 92° (E) 19:02:35 437.568
CUBEBUG 2 19 Nov 19:01:14 19:05:50 71° 257° (WSW) 19:10:20 437.445
SEEDS 19 Nov 19:02:13 19:06:20 65° 259° (W) 19:10:31 437.485
AO-73 19 Nov 19:14:15 19:18:22 45° 71° (ENE) 19:22:24 145.935
AAUSAT CUBESAT 2 19 Nov 19:15:24 19:19:31 80° 77° (ENE) 19:23:42 437.432
KKS-1 19 Nov 19:17:08 19:19:55 16° 301° (WNW) 19:22:41 437.445
NO-84 19 Nov 19:25:20 19:29:01 31° 358° (N) 19:32:49 435.350 FM
FO-29 19 Nov 19:25:53 19:31:15 19° 84° (E) 19:36:27 435.910
XW-2A 19 Nov 19:31:31 19:34:45 49° 260° (W) 19:38:00 145.665 - 145.685
Oscar 11 19 Nov 19:33:00 19:37:08 49° 71° (ENE) 19:41:18 .
HO-68 19 Nov 19:37:28 19:43:49 33° 265° (W) 19:50:13 435.675
STARS 19 Nov 19:47:10 19:50:10 18° 300° (WNW) 19:53:08 437.465
ZACube-1 19 Nov 19:57:53 20:02:10 57° 260° (W) 20:06:22 437.345
UWE-3 19 Nov 20:03:25 20:07:20 29° 265° (W) 20:11:10 435.000/436.395/437.385
Max Valier Satellite 19 Nov 20:04:51 20:07:05 16° 63° (ENE) 20:09:21 145.860
DELFI C3 19 Nov 20:06:26 20:09:39 24° 66° (ENE) 20:12:55 145.870
CUTE 1.7 + AOD 2 19 Nov 20:07:46 20:08:05 10° 274° (W) 20:08:23 437.475
EO-88 19 Nov 20:08:44 20:10:22 13° 61° (ENE) 20:11:59 145.990 - 145.960
STRAND 1 19 Nov 20:33:09 20:38:11 55° 290° (WNW) 20:43:09 437.568
AO-73 19 Nov 20:51:39 20:54:48 20° 268° (W) 20:57:56 145.935
AAUSAT CUBESAT 2 19 Nov 20:54:27 20:55:33 11° 273° (W) 20:56:38 437.432
RS-15 19 Nov 20:58:57 21:11:14 66° 317° (NW) 21:23:22 29.354- 29.394
NO-84 19 Nov 21:03:05 21:07:07 42° 18° (NNE) 21:11:13 435.350 FM
FO-29 19 Nov 21:09:26 21:17:24 82° 104° (ESE) 21:25:01 435.910
Oscar 11 19 Nov 21:10:31 21:13:33 19° 269° (W) 21:16:36 .
ISS 19 Nov 21:18:04 21:19:45 13° 135° (SE) 21:21:26 437.550
SO-50 19 Nov 21:18:17 21:19:06 10° 107° (ESE) 21:19:55 436.795
UNISAT 6 19 Nov 21:25:31 21:28:59 23° 93° (E) 21:32:24 437.425
TIGRISAT 19 Nov 21:30:25 21:33:55 24° 93° (E) 21:37:22 435.000
O/OREOS (USA 219) 19 Nov 21:36:05 21:37:40 12° 39° (NE) 21:39:13 437.305
Max Valier Satellite 19 Nov 21:37:03 21:40:34 46° 261° (W) 21:44:07 145.860
EO-88 19 Nov 21:39:57 21:43:31 60° 259° (W) 21:47:08 145.990 - 145.960
DELFI C3 19 Nov 21:40:40 21:44:15 33° 264° (W) 21:47:53 145.870
